Time,TemperatureF,DewpointF,PressureIn,WindDirection,WindDirectionDegrees,WindSpeedMPH,WindSpeedGustMPH,Humidity,HourlyPrecipIn,Conditions,Clouds,dailyrainin,SoftwareType,DateUTC
2013-10-12 00:01:00,56.0,50.6,30.17,SSW,203,1.1,2.7,82,0.00,,,0.00,WSDL version 440,2013-10-12 04:01:00,
2013-10-12 00:06:00,55.9,50.9,30.17,SSW,194,0.0,2.9,83,0.00,,,0.00,WSDL version 440,2013-10-12 04:06:00,
2013-10-12 00:11:00,55.9,51.0,30.17,South,169,1.1,2.9,84,0.00,,,0.00,WSDL version 440,2013-10-12 04:11:00,
2013-10-12 00:16:00,55.7,51.1,30.17,WSW,248,0.4,2.2,84,0.00,,,0.00,WSDL version 440,2013-10-12 04:16:00,
2013-10-12 00:21:00,55.6,51.0,30.17,SW,222,1.3,2.7,84,0.00,,,0.00,WSDL version 440,2013-10-12 04:21:00,
2013-10-12 00:26:00,55.5,50.9,30.17,SW,236,2.0,2.7,84,0.00,,,0.00,WSDL version 440,2013-10-12 04:26:00,
2013-10-12 00:31:00,55.4,50.8,30.17,SSW,210,1.6,2.7,84,0.00,,,0.00,WSDL version 440,2013-10-12 04:31:00,
2013-10-12 00:36:00,55.4,50.8,30.17,SSW,203,1.5,2.5,84,0.00,,,0.00,WSDL version 440,2013-10-12 04:36:00,
2013-10-12 00:41:00,55.3,51.0,30.17,SSW,203,1.6,2.5,85,0.00,,,0.00,WSDL version 440,2013-10-12 04:41:00,
2013-10-12 00:46:00,55.1,50.8,30.18,WSW,248,1.2,2.5,86,0.00,,,0.00,WSDL version 440,2013-10-12 04:46:00,
2013-10-12 00:51:00,54.9,50.8,30.18,SSW,203,2.0,2.5,86,0.00,,,0.00,WSDL version 440,2013-10-12 04:51:00,
2013-10-12 00:57:00,54.6,50.8,30.18,WSW,248,1.5,2.9,87,0.00,,,0.00,WSDL version 440,2013-10-12 04:57:00,
2013-10-12 01:02:00,54.5,50.9,30.18,SW,225,1.4,2.9,88,0.00,,,0.00,WSDL version 440,2013-10-12 05:02:00,
2013-10-12 01:07:00,54.3,51.0,30.18,SW,225,1.4,2.2,89,0.00,,,0.00,WSDL version 440,2013-10-12 05:07:00,
2013-10-12 01:12:00,54.2,51.0,30.18,SW,225,1.4,2.2,89,0.00,,,0.00,WSDL version 440,2013-10-12 05:12:00,
2013-10-12 01:17:00,54.0,51.1,30.18,SW,225,1.8,2.2,90,0.00,,,0.00,WSDL version 440,2013-10-12 05:17:00,
2013-10-12 01:22:00,53.7,50.9,30.18,SW,225,1.5,2.2,90,0.00,,,0.00,WSDL version 440,2013-10-12 05:22:00,
2013-10-12 01:27:00,53.5,50.8,30.19,SW,225,1.5,2.5,90,0.00,,,0.00,WSDL version 440,2013-10-12 05:27:00,
2013-10-12 01:32:00,53.3,51.0,30.19,SW,225,1.3,2.5,92,0.00,,,0.00,WSDL version 440,2013-10-12 05:32:00,
2013-10-12 01:37:00,53.2,51.0,30.19,SW,225,0.0,2.0,92,0.00,,,0.00,WSDL version 440,2013-10-12 05:37:00,
2013-10-12 01:42:00,53.1,50.9,30.19,SW,225,0.7,2.0,92,0.00,,,0.00,WSDL version 440,2013-10-12 05:42:00,
2013-10-12 01:47:00,53.1,50.9,30.19,SW,225,1.0,2.0,92,0.00,,,0.00,WSDL version 440,2013-10-12 05:47:00,
2013-10-12 01:52:00,53.0,51.0,30.19,WSW,245,1.3,2.0,93,0.00,,,0.00,WSDL version 440,2013-10-12 05:52:00,
2013-10-12 01:57:00,52.9,51.0,30.19,WSW,248,0.4,2.0,93,0.00,,,0.00,WSDL version 440,2013-10-12 05:57:00,
2013-10-12 02:02:00,52.9,51.1,30.19,WSW,248,1.2,1.6,94,0.00,,,0.00,WSDL version 440,2013-10-12 06:02:00,
2013-10-12 02:07:00,53.0,51.4,30.20,WSW,248,0.3,1.6,94,0.00,,,0.00,WSDL version 440,2013-10-12 06:07:00,
2013-10-12 02:12:00,53.1,51.5,30.20,WSW,248,1.1,1.6,94,0.00,,,0.00,WSDL version 440,2013-10-12 06:12:00,
2013-10-12 02:17:00,52.9,51.4,30.20,WSW,248,0.6,2.0,94,0.00,,,0.00,WSDL version 440,2013-10-12 06:17:00,
2013-10-12 02:22:00,52.9,51.4,30.20,WSW,248,1.3,2.2,95,0.00,,,0.00,WSDL version 440,2013-10-12 06:22:00,
2013-10-12 02:27:00,52.7,51.2,30.20,WSW,248,1.3,2.2,94,0.00,,,0.00,WSDL version 440,2013-10-12 06:27:00,
2013-10-12 02:32:00,52.6,51.0,30.20,WSW,248,0.2,2.0,94,0.00,,,0.00,WSDL version 440,2013-10-12 06:32:00,
2013-10-12 02:37:00,52.5,51.0,30.20,WSW,248,0.0,1.6,94,0.00,,,0.00,WSDL version 440,2013-10-12 06:37:00,
2013-10-12 02:42:00,52.4,50.8,30.20,WSW,248,0.0,0.0,94,0.00,,,0.00,WSDL version 440,2013-10-12 06:42:00,
2013-10-12 02:47:00,52.2,50.6,30.20,WSW,248,0.0,0.0,94,0.00,,,0.00,WSDL version 440,2013-10-12 06:47:00,
2013-10-12 02:52:00,51.9,50.2,30.21,WSW,248,1.0,2.0,94,0.00,,,0.00,WSDL version 440,2013-10-12 06:52:00,
2013-10-12 02:57:00,51.6,50.1,30.21,WSW,248,0.0,2.0,94,0.00,,,0.00,WSDL version 440,2013-10-12 06:57:00,
2013-10-12 03:02:00,51.6,50.1,30.21,WSW,248,0.0,1.3,94,0.00,,,0.00,WSDL version 440,2013-10-12 07:02:00,
2013-10-12 03:07:00,51.4,49.9,30.21,WSW,248,0.0,0.0,94,0.00,,,0.00,WSDL version 440,2013-10-12 07:07:00,
2013-10-12 03:12:00,51.6,50.0,30.21,NE,45,0.0,0.0,94,0.00,,,0.00,WSDL version 440,2013-10-12 07:12:00,
2013-10-12 03:17:00,51.6,50.1,30.21,WSW,248,0.0,0.0,94,0.00,,,0.00,WSDL version 440,2013-10-12 07:17:00,
2013-10-12 03:22:00,51.7,50.4,30.22,NE,40,1.6,5.4,96,0.00,,,0.00,WSDL version 440,2013-10-12 07:22:00,
2013-10-12 03:27:00,52.3,51.0,30.22,SE,135,0.3,5.4,96,0.00,,,0.00,WSDL version 440,2013-10-12 07:27:00,
2013-10-12 03:32:00,52.7,51.8,30.22,NE,39,0.0,2.5,97,0.00,,,0.00,WSDL version 440,2013-10-12 07:32:00,
2013-10-12 03:37:00,53.2,52.2,30.22,ENE,68,0.0,2.5,97,0.00,,,0.00,WSDL version 440,2013-10-12 07:37:00,
2013-10-12 03:42:00,53.4,52.5,30.22,NE,45,0.9,2.9,97,0.00,,,0.00,WSDL version 440,2013-10-12 07:42:00,
2013-10-12 03:47:00,53.6,52.4,30.22,East,90,0.7,3.6,96,0.00,,,0.00,WSDL version 440,2013-10-12 07:47:00,
2013-10-12 03:52:00,53.7,52.1,30.22,ESE,113,1.3,3.6,94,0.00,,,0.00,WSDL version 440,2013-10-12 07:52:00,
2013-10-12 03:57:00,53.8,51.9,30.22,East,90,0.7,2.2,93,0.00,,,0.00,WSDL version 440,2013-10-12 07:57:00,
2013-10-12 04:02:00,53.8,51.7,30.23,East,90,0.0,2.2,93,0.00,,,0.00,WSDL version 440,2013-10-12 08:02:00,
2013-10-12 04:07:00,53.8,51.6,30.23,NNW,345,0.4,2.5,92,0.00,,,0.00,WSDL version 440,2013-10-12 08:07:00,
2013-10-12 04:12:00,53.8,51.3,30.23,SE,135,0.0,2.5,91,0.00,,,0.00,WSDL version 440,2013-10-12 08:12:00,
2013-10-12 04:17:00,53.7,51.2,30.23,SSE,167,0.3,1.6,91,0.00,,,0.00,WSDL version 440,2013-10-12 08:17:00,
2013-10-12 04:22:00,53.4,50.8,30.23,WSW,248,0.8,1.6,91,0.00,,,0.00,WSDL version 440,2013-10-12 08:22:00,
2013-10-12 04:27:00,53.0,50.2,30.23,WSW,248,1.0,1.6,90,0.00,,,0.00,WSDL version 440,2013-10-12 08:27:00,
2013-10-12 04:32:00,52.8,49.9,30.23,WSW,248,0.5,1.6,90,0.00,,,0.00,WSDL version 440,2013-10-12 08:32:00,
2013-10-12 04:37:00,52.5,49.6,30.24,WNW,293,0.7,1.6,90,0.00,,,0.00,WSDL version 440,2013-10-12 08:37:00,
2013-10-12 04:42:00,52.3,49.7,30.25,WNW,293,0.2,1.6,91,0.00,,,0.00,WSDL version 440,2013-10-12 08:42:00,
2013-10-12 04:47:00,52.3,49.8,30.25,WNW,293,0.0,1.3,91,0.00,,,0.00,WSDL version 440,2013-10-12 08:47:00,
2013-10-12 04:52:00,52.3,49.8,30.25,NNE,23,2.4,3.1,91,0.00,,,0.00,WSDL version 440,2013-10-12 08:52:00,
2013-10-12 04:57:00,52.6,50.4,30.25,NNE,25,1.3,3.1,92,0.00,,,0.00,WSDL version 440,2013-10-12 08:57:00,
2013-10-12 05:02:00,52.8,50.6,30.25,NNE,32,1.8,3.4,92,0.00,,,0.00,WSDL version 440,2013-10-12 09:02:00,
2013-10-12 05:07:00,52.9,50.7,30.26,NNE,28,0.4,3.4,92,0.00,,,0.00,WSDL version 440,2013-10-12 09:07:00,
2013-10-12 05:12:00,52.9,50.7,30.26,North,10,2.4,4.3,92,0.00,,,0.00,WSDL version 440,2013-10-12 09:12:00,
2013-10-12 05:17:00,53.0,50.7,30.26,NNE,19,1.1,4.3,92,0.00,,,0.00,WSDL version 440,2013-10-12 09:17:00,
2013-10-12 05:22:00,53.1,50.5,30.26,NW,315,0.7,3.1,91,0.00,,,0.00,WSDL version 440,2013-10-12 09:22:00,
2013-10-12 05:27:00,52.9,50.4,30.26,ESE,113,0.8,2.5,91,0.00,,,0.00,WSDL version 440,2013-10-12 09:27:00,
2013-10-12 05:32:00,52.7,50.2,30.26,ESE,113,0.0,2.5,91,0.00,,,0.00,WSDL version 440,2013-10-12 09:32:00,
2013-10-12 05:37:00,52.5,50.0,30.27,ESE,113,0.1,1.3,91,0.00,,,0.00,WSDL version 440,2013-10-12 09:37:00,
2013-10-12 05:42:00,52.3,49.8,30.27,ENE,68,0.5,3.4,91,0.00,,,0.00,WSDL version 440,2013-10-12 09:42:00,
2013-10-12 05:47:00,52.6,50.3,30.28,NNE,25,3.1,3.8,92,0.00,,,0.00,WSDL version 440,2013-10-12 09:47:00,
2013-10-12 05:52:00,52.8,50.6,30.28,NE,35,2.8,3.8,92,0.00,,,0.00,WSDL version 440,2013-10-12 09:52:00,
2013-10-12 05:57:00,52.9,50.7,30.28,NNE,23,2.4,3.4,92,0.00,,,0.00,WSDL version 440,2013-10-12 09:57:00,
2013-10-12 06:02:00,52.9,50.4,30.28,NE,45,1.7,3.4,91,0.00,,,0.00,WSDL version 440,2013-10-12 10:02:00,
2013-10-12 06:07:00,53.1,50.5,30.28,NE,45,0.0,2.5,91,0.00,,,0.00,WSDL version 440,2013-10-12 10:07:00,
2013-10-12 06:12:00,53.1,50.5,30.28,NNE,23,1.5,2.5,91,0.00,,,0.00,WSDL version 440,2013-10-12 10:12:00,
2013-10-12 06:17:00,53.1,50.3,30.28,NNE,25,0.3,2.5,90,0.00,,,0.00,WSDL version 440,2013-10-12 10:17:00,
2013-10-12 06:22:00,53.1,50.2,30.28,NE,34,0.0,2.0,90,0.00,,,0.00,WSDL version 440,2013-10-12 10:22:00,
2013-10-12 06:27:00,53.0,50.1,30.28,WSW,253,0.0,1.3,90,0.00,,,0.00,WSDL version 440,2013-10-12 10:27:00,
2013-10-12 06:32:00,52.8,50.1,30.28,WSW,248,0.0,0.0,90,0.00,,,0.00,WSDL version 440,2013-10-12 10:32:00,
2013-10-12 06:37:00,52.8,50.3,30.29,NNE,25,1.3,3.6,91,0.00,,,0.00,WSDL version 440,2013-10-12 10:37:00,
2013-10-12 06:42:00,52.9,50.4,30.29,NNE,23,0.0,3.6,91,0.00,,,0.00,WSDL version 440,2013-10-12 10:42:00,
2013-10-12 06:47:00,53.0,50.2,30.29,NNE,26,3.0,5.8,90,0.00,,,0.00,WSDL version 440,2013-10-12 10:47:00,
2013-10-12 06:52:00,53.1,50.2,30.30,NE,34,3.7,5.8,90,0.00,,,0.00,WSDL version 440,2013-10-12 10:52:00,
2013-10-12 06:57:00,53.1,50.2,30.30,NE,34,3.5,6.0,90,0.00,,,0.00,WSDL version 440,2013-10-12 10:57:00,
2013-10-12 07:02:00,53.1,50.0,30.30,NE,45,2.6,6.0,89,0.00,,,0.00,WSDL version 440,2013-10-12 11:02:00,
2013-10-12 07:07:00,53.1,49.9,30.31,NE,51,3.2,6.7,89,0.00,,,0.00,WSDL version 440,2013-10-12 11:07:00,
2013-10-12 07:12:00,52.9,49.1,30.31,NE,56,2.6,6.7,87,0.00,,,0.00,WSDL version 440,2013-10-12 11:12:00,
2013-10-12 07:17:00,52.9,49.1,30.31,NNE,23,3.7,6.3,87,0.00,,,0.00,WSDL version 440,2013-10-12 11:17:00,
2013-10-12 07:22:00,52.9,49.0,30.32,NE,45,2.9,8.5,87,0.00,,,0.00,WSDL version 440,2013-10-12 11:22:00,
2013-10-12 07:27:00,52.9,48.7,30.32,NNE,28,6.0,10.7,86,0.00,,,0.00,WSDL version 440,2013-10-12 11:27:00,
2013-10-12 07:32:00,52.7,48.5,30.32,NE,37,3.0,10.7,86,0.00,,,0.00,WSDL version 440,2013-10-12 11:32:00,
2013-10-12 07:37:00,52.7,48.5,30.32,NNE,31,3.2,8.5,86,0.00,,,0.00,WSDL version 440,2013-10-12 11:37:00,
2013-10-12 07:42:00,52.7,48.4,30.32,NNE,25,4.1,8.7,85,0.00,,,0.00,WSDL version 440,2013-10-12 11:42:00,
2013-10-12 07:47:00,52.5,48.0,30.32,NNE,32,2.5,8.7,84,0.00,,,0.00,WSDL version 440,2013-10-12 11:47:00,
2013-10-12 07:52:00,52.3,47.8,30.32,ENE,68,2.4,7.8,84,0.00,,,0.00,WSDL version 440,2013-10-12 11:52:00,
2013-10-12 07:57:00,52.3,47.8,30.33,NE,39,1.6,3.4,84,0.00,,,0.00,WSDL version 440,2013-10-12 11:57:00,
2013-10-12 08:02:00,52.2,47.7,30.33,NNE,31,4.5,7.4,84,0.00,,,0.00,WSDL version 440,2013-10-12 12:02:00,
2013-10-12 08:07:00,52.1,47.3,30.33,NNE,28,6.5,8.7,84,0.00,,,0.00,WSDL version 440,2013-10-12 12:07:00,
2013-10-12 08:12:00,52.0,46.8,30.33,NNE,23,4.1,8.7,82,0.00,,,0.00,WSDL version 440,2013-10-12 12:12:00,
2013-10-12 08:17:00,51.9,46.7,30.34,NE,50,2.9,6.3,82,0.00,,,0.00,WSDL version 440,2013-10-12 12:17:00,
2013-10-12 08:22:00,51.8,46.4,30.34,NE,45,2.0,6.3,82,0.00,,,0.00,WSDL version 440,2013-10-12 12:22:00,
2013-10-12 08:27:00,51.8,46.3,30.34,NE,53,2.9,6.5,81,0.00,,,0.00,WSDL version 440,2013-10-12 12:27:00,
2013-10-12 08:32:00,51.7,46.1,30.34,NE,42,4.1,7.6,81,0.00,,,0.00,WSDL version 440,2013-10-12 12:32:00,
2013-10-12 08:37:00,51.6,45.8,30.34,East,80,2.0,7.6,81,0.00,,,0.00,WSDL version 440,2013-10-12 12:37:00,
2013-10-12 08:42:00,51.6,45.6,30.34,ENE,62,3.1,7.2,80,0.00,,,0.00,WSDL version 440,2013-10-12 12:42:00,
2013-10-12 08:47:00,51.4,45.4,30.34,SSE,158,2.5,7.2,80,0.00,,,0.00,WSDL version 440,2013-10-12 12:47:00,
2013-10-12 08:52:00,51.3,45.0,30.34,NE,56,2.1,5.8,79,0.00,,,0.00,WSDL version 440,2013-10-12 12:52:00,
2013-10-12 08:57:00,51.3,45.0,30.34,ENE,68,2.4,3.6,79,0.00,,,0.00,WSDL version 440,2013-10-12 12:57:00,
2013-10-12 09:02:00,51.1,44.8,30.34,NE,39,3.1,4.9,79,0.00,,,0.00,WSDL version 440,2013-10-12 13:02:00,
2013-10-12 09:07:00,51.2,45.1,30.35,ENE,68,0.8,4.9,80,0.00,,,0.00,WSDL version 440,2013-10-12 13:07:00,
2013-10-12 09:12:00,51.2,44.9,30.34,ENE,73,1.2,3.1,79,0.00,,,0.00,WSDL version 440,2013-10-12 13:12:00,
2013-10-12 09:17:00,51.1,44.8,30.34,South,170,1.4,3.4,79,0.00,,,0.00,WSDL version 440,2013-10-12 13:17:00,
2013-10-12 09:22:00,51.1,44.8,30.34,SSW,212,1.7,3.6,79,0.00,,,0.00,WSDL version 440,2013-10-12 13:22:00,
2013-10-12 09:27:00,51.1,44.0,30.34,SE,130,1.4,3.6,77,0.00,,,0.00,WSDL version 440,2013-10-12 13:27:00,
2013-10-12 09:32:00,51.1,43.4,30.35,East,90,1.5,2.5,75,0.00,,,0.00,WSDL version 440,2013-10-12 13:32:00,
2013-10-12 09:37:00,51.1,43.2,30.35,East,90,1.0,2.5,75,0.00,,,0.00,WSDL version 440,2013-10-12 13:37:00,
2013-10-12 09:42:00,51.0,43.0,30.35,ESE,110,1.6,2.9,74,0.00,,,0.00,WSDL version 440,2013-10-12 13:42:00,
2013-10-12 09:47:00,51.1,43.2,30.35,ESE,108,1.5,2.9,74,0.00,,,0.00,WSDL version 440,2013-10-12 13:47:00,
2013-10-12 09:52:00,51.1,43.1,30.35,East,90,2.3,2.9,74,0.00,,,0.00,WSDL version 440,2013-10-12 13:52:00,
2013-10-12 10:02:00,51.4,43.4,30.35,SSE,163,1.3,2.9,74,0.00,,,0.00,WSDL version 440,2013-10-12 14:02:00,
2013-10-12 10:09:00,51.4,43.4,30.35,SW,215,1.6,6.5,74,0.00,,,0.00,WSDL version 440,2013-10-12 14:09:00,
2013-10-12 10:14:00,51.4,43.1,30.35,SSW,200,1.7,6.5,73,0.00,,,0.00,WSDL version 440,2013-10-12 14:14:00,
2013-10-12 10:19:00,51.3,42.9,30.35,South,172,1.3,3.1,73,0.00,,,0.00,WSDL version 440,2013-10-12 14:19:00,
2013-10-12 10:25:00,51.3,42.6,30.35,ESE,113,1.3,2.5,72,0.00,,,0.00,WSDL version 440,2013-10-12 14:25:00,
2013-10-12 10:30:00,51.2,42.8,30.35,ESE,113,0.2,2.5,73,0.00,,,0.00,WSDL version 440,2013-10-12 14:30:00,
2013-10-12 10:35:00,51.1,42.6,30.35,ESE,113,0.7,1.6,73,0.00,,,0.00,WSDL version 440,2013-10-12 14:35:00,
2013-10-12 10:40:00,51.2,42.7,30.35,ESE,113,0.0,1.6,72,0.00,,,0.00,WSDL version 440,2013-10-12 14:40:00,
2013-10-12 10:45:00,51.3,42.8,30.35,ESE,113,0.0,1.3,73,0.00,,,0.00,WSDL version 440,2013-10-12 14:45:00,
2013-10-12 10:50:00,51.4,43.4,30.35,NNE,23,1.0,3.8,74,0.00,,,0.00,WSDL version 440,2013-10-12 14:50:00,
2013-10-12 10:55:00,51.5,43.2,30.36,NE,45,1.9,3.8,73,0.00,,,0.00,WSDL version 440,2013-10-12 14:55:00,
2013-10-12 11:00:00,51.5,42.7,30.36,ENE,60,0.4,2.7,72,0.00,,,0.00,WSDL version 440,2013-10-12 15:00:00,
2013-10-12 11:05:00,51.4,42.5,30.36,NE,40,1.9,5.4,72,0.00,,,0.00,WSDL version 440,2013-10-12 15:05:00,
2013-10-12 11:10:00,51.5,42.5,30.36,NNE,23,4.8,6.5,71,0.00,,,0.00,WSDL version 440,2013-10-12 15:10:00,
2013-10-12 11:15:00,51.6,42.9,30.36,NNE,23,6.9,8.7,72,0.00,,,0.00,WSDL version 440,2013-10-12 15:15:00,
2013-10-12 11:20:00,51.7,43.3,30.36,NE,39,1.6,8.7,73,0.00,,,0.00,WSDL version 440,2013-10-12 15:20:00,
2013-10-12 11:25:00,51.9,43.5,30.36,East,88,1.8,4.0,73,0.00,,,0.00,WSDL version 440,2013-10-12 15:25:00,
2013-10-12 11:30:00,52.1,43.2,30.35,East,90,0.0,4.0,72,0.00,,,0.00,WSDL version 440,2013-10-12 15:30:00,
2013-10-12 11:35:00,52.2,43.1,30.36,NE,45,2.1,5.6,71,0.00,,,0.00,WSDL version 440,2013-10-12 15:35:00,
2013-10-12 11:40:00,52.4,43.4,30.36,NNE,28,2.6,5.6,71,0.00,,,0.00,WSDL version 440,2013-10-12 15:40:00,
2013-10-12 11:45:00,52.5,43.7,30.36,NNE,23,1.3,3.6,72,0.00,,,0.00,WSDL version 440,2013-10-12 15:45:00,
2013-10-12 11:50:00,52.6,43.6,30.36,NE,40,0.0,2.5,71,0.00,,,0.00,WSDL version 440,2013-10-12 15:50:00,
2013-10-12 11:55:00,52.7,43.7,30.36,NNE,26,2.1,3.1,71,0.00,,,0.00,WSDL version 440,2013-10-12 15:55:00,
2013-10-12 12:00:00,52.9,44.2,30.36,NNE,28,1.3,3.1,72,0.00,,,0.00,WSDL version 440,2013-10-12 16:00:00,
2013-10-12 12:05:00,53.2,44.4,30.36,NNE,23,2.6,4.5,72,0.00,,,0.00,WSDL version 440,2013-10-12 16:05:00,
2013-10-12 12:10:00,53.4,44.1,30.36,NNE,23,2.1,4.5,71,0.00,,,0.00,WSDL version 440,2013-10-12 16:10:00,
2013-10-12 12:15:00,53.7,44.2,30.36,NNE,23,3.9,6.5,70,0.00,,,0.00,WSDL version 440,2013-10-12 16:15:00,
2013-10-12 12:20:00,54.0,44.3,30.36,NNE,30,2.2,6.5,70,0.00,,,0.00,WSDL version 440,2013-10-12 16:20:00,
2013-10-12 12:25:00,54.1,44.1,30.36,NE,40,2.1,5.6,69,0.00,,,0.00,WSDL version 440,2013-10-12 16:25:00,
2013-10-12 12:30:00,54.2,44.2,30.35,NE,45,1.1,3.8,69,0.00,,,0.00,WSDL version 440,2013-10-12 16:30:00,
2013-10-12 12:35:00,54.4,43.9,30.35,NE,42,2.7,4.3,68,0.00,,,0.00,WSDL version 440,2013-10-12 16:35:00,
2013-10-12 12:40:00,54.5,44.2,30.35,NE,48,0.9,5.8,68,0.00,,,0.00,WSDL version 440,2013-10-12 16:40:00,
2013-10-12 12:45:00,54.8,44.6,30.35,ENE,68,0.0,5.8,68,0.00,,,0.00,WSDL version 440,2013-10-12 16:45:00,
2013-10-12 12:50:00,55.0,44.3,30.35,NNE,28,4.9,7.4,67,0.00,,,0.00,WSDL version 440,2013-10-12 16:50:00,
2013-10-12 12:55:00,55.0,44.2,30.34,NNE,28,2.4,7.4,67,0.00,,,0.00,WSDL version 440,2013-10-12 16:55:00,
2013-10-12 13:00:00,55.3,44.4,30.35,ENE,60,1.7,5.4,67,0.00,,,0.00,WSDL version 440,2013-10-12 17:00:00,
2013-10-12 13:05:00,55.4,44.0,30.35,ENE,68,1.8,2.9,66,0.00,,,0.00,WSDL version 440,2013-10-12 17:05:00,
2013-10-12 13:10:00,55.6,44.0,30.35,NE,48,3.2,4.3,65,0.00,,,0.00,WSDL version 440,2013-10-12 17:10:00,
2013-10-12 13:15:00,55.6,43.8,30.35,NE,37,2.4,4.3,65,0.00,,,0.00,WSDL version 440,2013-10-12 17:15:00,
2013-10-12 13:20:00,55.7,44.3,30.35,NE,38,1.1,3.8,65,0.00,,,0.00,WSDL version 440,2013-10-12 17:20:00,
2013-10-12 13:25:00,55.8,43.8,30.35,NNE,23,5.8,8.1,64,0.00,,,0.00,WSDL version 440,2013-10-12 17:25:00,
2013-10-12 13:30:00,55.6,43.6,30.34,NE,39,4.1,8.1,64,0.00,,,0.00,WSDL version 440,2013-10-12 17:30:00,
2013-10-12 13:35:00,55.6,44.0,30.35,NNE,26,2.1,6.7,65,0.00,,,0.00,WSDL version 440,2013-10-12 17:35:00,
2013-10-12 13:40:00,55.8,44.3,30.34,NE,45,0.9,4.0,65,0.00,,,0.00,WSDL version 440,2013-10-12 17:40:00,
2013-10-12 13:45:00,55.9,44.3,30.34,NE,40,2.0,4.3,65,0.00,,,0.00,WSDL version 440,2013-10-12 17:45:00,
2013-10-12 13:50:00,56.0,44.5,30.34,NNE,25,4.9,6.3,65,0.00,,,0.00,WSDL version 440,2013-10-12 17:50:00,
2013-10-12 13:55:00,56.1,44.5,30.34,NE,37,2.6,6.3,65,0.00,,,0.00,WSDL version 440,2013-10-12 17:55:00,
2013-10-12 14:00:00,56.3,44.3,30.34,NNE,17,2.8,5.6,64,0.00,,,0.00,WSDL version 440,2013-10-12 18:00:00,
2013-10-12 14:05:00,56.3,44.3,30.34,NE,37,1.1,4.0,64,0.00,,,0.00,WSDL version 440,2013-10-12 18:05:00,
2013-10-12 14:10:00,56.3,43.8,30.34,NNE,30,4.1,6.0,63,0.00,,,0.00,WSDL version 440,2013-10-12 18:10:00,
2013-10-12 14:15:00,56.3,43.5,30.34,NNE,25,2.9,6.5,62,0.00,,,0.00,WSDL version 440,2013-10-12 18:15:00,
2013-10-12 14:20:00,56.5,43.8,30.34,NE,40,3.9,6.5,62,0.00,,,0.00,WSDL version 440,2013-10-12 18:20:00,
2013-10-12 14:25:00,56.5,43.9,30.34,NE,37,2.6,6.0,63,0.00,,,0.00,WSDL version 440,2013-10-12 18:25:00,
2013-10-12 14:30:00,56.5,43.9,30.33,NNE,23,0.3,5.6,63,0.00,,,0.00,WSDL version 440,2013-10-12 18:30:00,
2013-10-12 14:35:00,56.7,43.9,30.34,NNE,16,1.8,3.1,62,0.00,,,0.00,WSDL version 440,2013-10-12 18:35:00,
2013-10-12 14:40:00,56.7,44.0,30.33,NNE,32,2.1,3.4,63,0.00,,,0.00,WSDL version 440,2013-10-12 18:40:00,
2013-10-12 14:45:00,56.7,44.2,30.33,North,360,0.0,3.4,63,0.00,,,0.00,WSDL version 440,2013-10-12 18:45:00,
2013-10-12 14:50:00,56.7,44.1,30.33,NE,37,0.3,2.2,63,0.00,,,0.00,WSDL version 440,2013-10-12 18:50:00,
2013-10-12 14:55:00,56.7,43.9,30.32,WNW,298,0.8,2.2,62,0.00,,,0.00,WSDL version 440,2013-10-12 18:55:00,
2013-10-12 15:00:00,56.7,44.2,30.32,NNE,23,1.0,2.2,63,0.00,,,0.00,WSDL version 440,2013-10-12 19:00:00,
2013-10-12 15:05:00,56.7,44.2,30.32,NNE,30,1.2,2.5,63,0.00,,,0.00,WSDL version 440,2013-10-12 19:05:00,
2013-10-12 15:10:00,56.7,43.9,30.32,NE,45,0.0,2.5,62,0.00,,,0.00,WSDL version 440,2013-10-12 19:10:00,
2013-10-12 15:15:00,56.7,43.9,30.32,ENE,74,0.0,1.3,62,0.00,,,0.00,WSDL version 440,2013-10-12 19:15:00,
2013-10-12 15:20:00,56.7,44.3,30.32,West,268,0.4,2.0,63,0.00,,,0.00,WSDL version 440,2013-10-12 19:20:00,
2013-10-12 15:25:00,56.7,44.3,30.32,NE,56,0.0,2.0,63,0.00,,,0.00,WSDL version 440,2013-10-12 19:25:00,
2013-10-12 15:30:00,56.9,43.7,30.33,East,90,0.6,1.6,61,0.00,,,0.00,WSDL version 440,2013-10-12 19:30:00,
2013-10-12 15:35:00,57.0,43.2,30.33,East,90,1.1,2.0,60,0.00,,,0.00,WSDL version 440,2013-10-12 19:35:00,
2013-10-12 15:45:00,57.0,43.3,30.33,SSW,203,0.0,2.0,60,0.00,,,0.00,WSDL version 440,2013-10-12 19:45:00,
2013-10-12 15:50:00,57.0,43.5,30.33,SSW,203,0.0,1.3,61,0.00,,,0.00,WSDL version 440,2013-10-12 19:50:00,
2013-10-12 15:55:00,57.0,43.6,30.33,SSW,203,0.0,0.0,61,0.00,,,0.00,WSDL version 440,2013-10-12 19:55:00,
2013-10-12 16:00:00,57.0,43.7,30.33,West,270,0.0,1.6,61,0.00,,,0.00,WSDL version 440,2013-10-12 20:00:00,
2013-10-12 16:05:00,57.0,43.7,30.34,NNE,23,0.0,1.6,61,0.00,,,0.00,WSDL version 440,2013-10-12 20:05:00,
2013-10-12 16:10:00,56.9,43.8,30.34,SSW,203,0.0,1.1,62,0.00,,,0.00,WSDL version 440,2013-10-12 20:10:00,
2013-10-12 16:15:00,56.8,43.7,30.33,SSW,203,0.0,0.0,61,0.00,,,0.00,WSDL version 440,2013-10-12 20:15:00,
2013-10-12 16:20:00,56.8,44.0,30.33,SSW,203,0.0,0.0,62,0.00,,,0.00,WSDL version 440,2013-10-12 20:20:00,
2013-10-12 16:25:00,56.8,44.0,30.33,SSW,203,0.0,0.0,62,0.00,,,0.00,WSDL version 440,2013-10-12 20:25:00,
2013-10-12 16:30:00,56.7,44.4,30.33,SSW,203,0.0,0.0,63,0.00,,,0.00,WSDL version 440,2013-10-12 20:30:00,
2013-10-12 16:35:00,56.7,44.6,30.33,SSW,203,0.0,0.0,64,0.00,,,0.00,WSDL version 440,2013-10-12 20:35:00,
2013-10-12 16:40:00,56.6,44.6,30.33,SSW,203,0.0,0.0,64,0.00,,,0.00,WSDL version 440,2013-10-12 20:40:00,
2013-10-12 16:45:00,56.5,44.8,30.34,SSW,203,0.0,0.0,65,0.00,,,0.00,WSDL version 440,2013-10-12 20:45:00,
2013-10-12 16:50:00,56.3,44.7,30.33,SSW,203,0.0,0.0,65,0.00,,,0.00,WSDL version 440,2013-10-12 20:50:00,
2013-10-12 16:55:00,56.3,45.1,30.33,SSW,203,0.0,0.0,66,0.00,,,0.00,WSDL version 440,2013-10-12 20:55:00,
2013-10-12 17:00:00,56.3,45.4,30.33,SSW,203,0.0,0.0,67,0.00,,,0.00,WSDL version 440,2013-10-12 21:00:00,
2013-10-12 17:05:00,56.1,45.6,30.33,ENE,68,0.0,1.1,68,0.00,,,0.00,WSDL version 440,2013-10-12 21:05:00,
2013-10-12 17:10:00,56.1,45.7,30.33,NE,48,0.0,1.1,68,0.00,,,0.00,WSDL version 440,2013-10-12 21:10:00,
2013-10-12 17:15:00,56.1,45.5,30.34,NE,45,0.0,0.9,67,0.00,,,0.00,WSDL version 440,2013-10-12 21:15:00,
2013-10-12 17:20:00,56.1,45.5,30.34,NE,45,0.0,0.0,68,0.00,,,0.00,WSDL version 440,2013-10-12 21:20:00,
2013-10-12 17:25:00,55.9,45.9,30.34,NE,45,0.0,0.0,69,0.00,,,0.00,WSDL version 440,2013-10-12 21:25:00,
2013-10-12 17:30:00,55.9,46.1,30.34,North,3,0.0,0.0,70,0.00,,,0.00,WSDL version 440,2013-10-12 21:30:00,
2013-10-12 17:35:00,55.7,46.0,30.34,West,270,0.0,0.0,70,0.00,,,0.00,WSDL version 440,2013-10-12 21:35:00,
2013-10-12 17:40:00,55.5,45.9,30.34,West,270,0.0,0.0,70,0.00,,,0.00,WSDL version 440,2013-10-12 21:40:00,
2013-10-12 17:45:00,55.3,46.2,30.34,West,270,0.0,0.0,71,0.00,,,0.00,WSDL version 440,2013-10-12 21:45:00,
2013-10-12 17:50:00,55.1,46.2,30.34,West,270,0.0,0.0,72,0.00,,,0.00,WSDL version 440,2013-10-12 21:50:00,
2013-10-12 19:13:00,51.9,46.3,30.35,WSW,248,0.0,0.0,81,0.00,,,0.00,WSDL version 440,2013-10-12 23:13:00,
2013-10-12 19:18:00,51.8,46.6,30.35,WSW,248,0.0,0.0,82,0.00,,,0.00,WSDL version 440,2013-10-12 23:18:00,
2013-10-12 19:23:00,51.8,46.9,30.35,WSW,248,0.0,0.0,83,0.00,,,0.00,WSDL version 440,2013-10-12 23:23:00,
2013-10-12 19:28:00,51.8,46.9,30.35,WSW,248,0.0,0.0,83,0.00,,,0.00,WSDL version 440,2013-10-12 23:28:00,
2013-10-12 19:33:00,51.8,46.9,30.35,WSW,248,0.0,0.0,83,0.00,,,0.00,WSDL version 440,2013-10-12 23:33:00,
2013-10-12 19:38:00,51.8,46.9,30.35,WSW,248,0.0,0.0,83,0.00,,,0.00,WSDL version 440,2013-10-12 23:38:00,
2013-10-12 19:43:00,51.8,46.9,30.35,WSW,248,0.0,0.0,83,0.00,,,0.00,WSDL version 440,2013-10-12 23:43:00,
2013-10-12 19:48:00,51.6,46.7,30.35,WSW,248,0.0,0.0,83,0.00,,,0.00,WSDL version 440,2013-10-12 23:48:00,
2013-10-12 19:53:00,51.5,46.7,30.35,WSW,248,0.0,0.0,84,0.00,,,0.00,WSDL version 440,2013-10-12 23:53:00,
2013-10-12 19:58:00,51.3,46.4,30.35,WSW,248,0.0,0.0,83,0.00,,,0.00,WSDL version 440,2013-10-12 23:58:00,
2013-10-12 20:03:00,51.1,46.5,30.36,WSW,248,0.0,0.0,84,0.00,,,0.00,WSDL version 440,2013-10-13 00:03:00,
2013-10-12 20:08:00,50.8,46.3,30.36,WSW,248,0.0,0.0,84,0.00,,,0.00,WSDL version 440,2013-10-13 00:08:00,
2013-10-12 20:13:00,50.6,46.1,30.36,WSW,248,0.0,0.0,84,0.00,,,0.00,WSDL version 440,2013-10-13 00:13:00,
2013-10-12 20:18:00,50.5,46.0,30.36,WSW,248,0.0,0.0,84,0.00,,,0.00,WSDL version 440,2013-10-13 00:18:00,
2013-10-12 20:23:00,50.4,45.9,30.36,WSW,248,0.0,0.0,84,0.00,,,0.00,WSDL version 440,2013-10-13 00:23:00,
2013-10-12 20:28:00,50.4,45.9,30.36,WSW,248,0.0,0.0,84,0.00,,,0.00,WSDL version 440,2013-10-13 00:28:00,
2013-10-12 20:33:00,50.5,46.0,30.36,WSW,248,0.0,0.0,84,0.00,,,0.00,WSDL version 440,2013-10-13 00:33:00,
2013-10-12 20:38:00,50.5,46.0,30.36,WSW,248,0.0,0.0,84,0.00,,,0.00,WSDL version 440,2013-10-13 00:38:00,
2013-10-12 20:43:00,50.5,46.0,30.36,WSW,248,0.0,0.0,84,0.00,,,0.00,WSDL version 440,2013-10-13 00:43:00,
2013-10-12 20:48:00,50.7,46.2,30.36,WSW,248,0.0,0.0,84,0.00,,,0.00,WSDL version 440,2013-10-13 00:48:00,
2013-10-12 20:53:00,50.7,46.0,30.37,WSW,248,0.0,0.0,84,0.00,,,0.00,WSDL version 440,2013-10-13 00:53:00,
2013-10-12 21:00:00,50.7,46.1,30.37,WSW,248,0.0,0.0,84,0.00,,,0.00,WSDL version 440,2013-10-13 01:00:00,
2013-10-12 21:10:00,50.7,46.1,30.37,WSW,248,0.0,0.0,84,0.00,,,0.00,WSDL version 440,2013-10-13 01:10:00,
2013-10-12 21:15:00,50.7,45.9,30.37,WSW,248,0.0,0.0,83,0.00,,,0.00,WSDL version 440,2013-10-13 01:15:00,
2013-10-12 21:20:00,50.7,46.0,30.37,WSW,248,0.0,0.0,84,0.00,,,0.00,WSDL version 440,2013-10-13 01:20:00,
2013-10-12 21:25:00,50.7,45.9,30.37,WSW,248,0.0,0.0,83,0.00,,,0.00,WSDL version 440,2013-10-13 01:25:00,
2013-10-12 21:30:00,50.7,45.9,30.37,WSW,248,0.0,0.0,83,0.00,,,0.00,WSDL version 440,2013-10-13 01:30:00,
2013-10-12 21:35:00,50.7,45.9,30.37,WSW,248,0.0,0.0,83,0.00,,,0.00,WSDL version 440,2013-10-13 01:35:00,
2013-10-12 21:40:00,50.7,45.9,30.37,WSW,248,0.0,0.0,83,0.00,,,0.00,WSDL version 440,2013-10-13 01:40:00,
2013-10-12 21:45:00,50.7,45.9,30.37,WSW,248,0.0,0.0,83,0.00,,,0.00,WSDL version 440,2013-10-13 01:45:00,
2013-10-12 21:50:00,50.7,45.9,30.37,WSW,248,0.0,0.0,83,0.00,,,0.00,WSDL version 440,2013-10-13 01:50:00,
2013-10-12 21:55:00,50.6,45.7,30.37,WSW,248,0.0,0.0,83,0.00,,,0.00,WSDL version 440,2013-10-13 01:55:00,
2013-10-12 22:00:00,50.5,45.7,30.38,WSW,248,0.0,0.0,83,0.00,,,0.00,WSDL version 440,2013-10-13 02:00:00,
2013-10-12 22:05:00,50.5,45.7,30.38,WSW,248,0.0,0.0,83,0.00,,,0.00,WSDL version 440,2013-10-13 02:05:00,
2013-10-12 22:10:00,50.4,45.5,30.38,WSW,248,0.0,0.0,83,0.00,,,0.00,WSDL version 440,2013-10-13 02:10:00,
2013-10-12 22:15:00,50.3,45.5,30.37,WSW,248,0.0,0.0,83,0.00,,,0.00,WSDL version 440,2013-10-13 02:15:00,
2013-10-12 22:20:00,50.2,45.3,30.38,WSW,248,0.0,0.0,83,0.00,,,0.00,WSDL version 440,2013-10-13 02:20:00,
2013-10-12 22:25:00,50.2,45.3,30.38,WSW,248,0.0,0.0,83,0.00,,,0.00,WSDL version 440,2013-10-13 02:25:00,
2013-10-12 22:30:00,50.2,45.5,30.38,WSW,248,0.0,0.0,84,0.00,,,0.00,WSDL version 440,2013-10-13 02:30:00,
2013-10-12 22:35:00,50.2,45.7,30.38,WSW,248,0.0,0.0,84,0.00,,,0.00,WSDL version 440,2013-10-13 02:35:00,
2013-10-12 22:40:00,50.2,45.6,30.38,WSW,248,0.0,0.0,84,0.00,,,0.00,WSDL version 440,2013-10-13 02:40:00,
2013-10-12 22:45:00,50.2,45.7,30.38,WSW,248,0.0,0.0,84,0.00,,,0.00,WSDL version 440,2013-10-13 02:45:00,
2013-10-12 22:50:00,50.2,45.7,30.38,WSW,248,0.0,0.0,84,0.00,,,0.00,WSDL version 440,2013-10-13 02:50:00,
2013-10-12 22:55:00,50.2,45.7,30.37,WSW,248,0.0,0.0,84,0.00,,,0.00,WSDL version 440,2013-10-13 02:55:00,
2013-10-12 23:00:00,50.2,45.7,30.38,WSW,248,0.0,0.0,84,0.00,,,0.00,WSDL version 440,2013-10-13 03:00:00,
2013-10-12 23:05:00,50.2,45.7,30.38,West,264,0.0,0.0,84,0.00,,,0.00,WSDL version 440,2013-10-13 03:05:00,
2013-10-12 23:10:00,50.2,45.7,30.38,WNW,284,0.0,0.0,84,0.00,,,0.00,WSDL version 440,2013-10-13 03:10:00,
2013-10-12 23:15:00,50.2,45.5,30.38,West,270,0.0,0.0,84,0.00,,,0.00,WSDL version 440,2013-10-13 03:15:00,
2013-10-12 23:20:00,50.0,45.3,30.38,West,270,0.0,0.0,84,0.00,,,0.00,WSDL version 440,2013-10-13 03:20:00,
2013-10-12 23:25:00,49.9,45.4,30.38,West,270,0.0,0.0,84,0.00,,,0.00,WSDL version 440,2013-10-13 03:25:00,
2013-10-12 23:30:00,49.8,45.3,30.38,West,270,0.0,0.0,84,0.00,,,0.00,WSDL version 440,2013-10-13 03:30:00,
2013-10-12 23:35:00,49.6,45.1,30.38,West,270,0.0,0.0,84,0.00,,,0.00,WSDL version 440,2013-10-13 03:35:00,
2013-10-12 23:40:00,49.5,45.1,30.38,West,270,0.0,0.0,85,0.00,,,0.00,WSDL version 440,2013-10-13 03:40:00,
2013-10-12 23:45:00,49.5,45.2,30.38,West,270,0.0,0.0,85,0.00,,,0.00,WSDL version 440,2013-10-13 03:45:00,
2013-10-12 23:50:00,49.5,45.3,30.38,West,270,0.0,0.0,86,0.00,,,0.00,WSDL version 440,2013-10-13 03:50:00,
2013-10-12 23:55:00,49.3,45.2,30.38,West,270,0.0,0.0,86,0.00,,,0.00,WSDL version 440,2013-10-13 03:55:00,